TimeNZDT,TemperatureF,Dew PointF,Humidity,Sea Level PressureIn,VisibilityMPH,Wind Direction,Wind SpeedMPH,Gust SpeedMPH,PrecipitationIn,Events,Conditions,WindDirDegrees,DateUTC
12:50 AM,-50.8,-9999,N/A,28.53,6.2,ENE,6.9,-,N/A,,Ice Crystals,60,2013-02-13 11:50:00
1:00 AM,-51,,,,7,ENE,6.9,,,Snow,Snow,60,2013-02-13 12:00:00
4:50 AM,-49.0,-9999,N/A,28.55,6.2,NE,8.1,-,N/A,,Ice Crystals,40,2013-02-13 15:50:00
5:50 AM,-49.0,-9999,N/A,28.56,6.2,NNE,10.4,-,N/A,,Ice Crystals,30,2013-02-13 16:50:00
6:50 AM,-49.0,-9999,N/A,28.57,6.2,NE,5.8,-,N/A,,Ice Crystals,50,2013-02-13 17:50:00
7:00 AM,-48,,,,7,NE,5.8,,,Snow,Snow,50,2013-02-13 18:00:00
7:50 AM,-49.0,-9999,N/A,28.58,6.2,ENE,4.6,-,N/A,Snow,Light Snow Grains,60,2013-02-13 18:50:00
8:50 AM,-49.0,-9999,N/A,28.59,6.2,East,5.8,-,N/A,,Ice Crystals,80,2013-02-13 19:50:00
9:50 AM,-50.8,-9999,N/A,28.59,6.2,NE,6.9,-,N/A,,Ice Crystals,50,2013-02-13 20:50:00
10:50 AM,-49.0,-9999,N/A,28.60,5.6,ENE,5.8,-,N/A,,Ice Crystals,60,2013-02-13 21:50:00
11:50 AM,-47.2,-9999,N/A,28.61,-9999.0,ENE,5.8,-,N/A,,Ice Crystals,70,2013-02-13 22:50:00
12:50 PM,-49.0,-9999,N/A,28.61,-9999.0,NE,6.9,-,N/A,,Ice Crystals,50,2013-02-13 23:50:00
1:00 PM,-48,,,,3,NE,6.9,,,Snow,Snow,50,2013-02-14 00:00:00
1:50 PM,-50.8,-9999,N/A,28.63,5.0,ENE,5.8,-,N/A,,Ice Crystals,70,2013-02-14 00:50:00
2:50 PM,-52.6,-9999,N/A,28.63,5.0,ENE,5.8,-,N/A,,Ice Crystals,70,2013-02-14 01:50:00
3:50 PM,-52.6,-9999,N/A,28.63,6.2,NE,8.1,-,N/A,,Ice Crystals,50,2013-02-14 02:50:00
4:50 PM,-50.8,-9999,N/A,28.64,5.0,ENE,4.6,-,N/A,,Ice Crystals,60,2013-02-14 03:50:00
5:50 PM,-54.4,-9999,N/A,28.64,5.0,ENE,5.8,-,N/A,,Ice Crystals,70,2013-02-14 04:50:00
6:50 PM,-54.4,-9999,N/A,28.65,5.0,ENE,6.9,-,N/A,,Ice Crystals,70,2013-02-14 05:50:00
7:00 PM,-54,,,,5,ENE,5.8,,,Snow,Snow,70,2013-02-14 06:00:00
7:50 PM,-54.4,-9999,N/A,28.66,5.0,ENE,6.9,-,N/A,,Ice Crystals,60,2013-02-14 06:50:00
8:50 PM,-54.4,-9999,N/A,28.66,5.0,ENE,8.1,-,N/A,,Ice Crystals,70,2013-02-14 07:50:00